Location: Unspecified
(0.0000°N, 0.0000°E)
Time: 19:16:11
(UTC+00:00)

Envisat - Pass Details

Date: 20 October 2021
Orbit: 764 x 766 km, 98.2° (Epoch: 24 October)

Event Time Altitude Azimuth Distance (km) Brightness Sun altitude
Rises 03:40:53 0° 45° (NE) 3,216 6.6 -30.4°
Reaches altitude 10° 03:44:07 10° 67° (ENE) 2,294 6.1 -29.6°
Maximum altitude 03:47:01 15° 103° (ESE) 1,944 5.9 -28.9°
Drops below altitude 10° 03:49:56 10° 138° (SE) 2,300 6.1 -28.2°
Sets 03:53:09 0° 160° (SSE) 3,229 6.7 -27.4°
